Hourly Data Report for May 04, 2020

TORONTO CITY
ONTARIO
Current Station Operator: ECCC - MSC

43°40'00.000" N
79°24'00.000" W
112.50 m
6158355
71508
XTO

Download Data

Hourly Data (May 2020)
Hourly Data Report for May 4, 2020
TIME
LST
Temp Definition
°C
Dew Point Definition
°C
Rel Hum Definition
%
Precip. Amount Definition
mm

Wind Dir Definition
10's deg

Wind Spd Definition
km/h
Visibility Definition
km
Stn Press Definition
kPa
Hmdx Definition


Wind Chill Definition


Weather Definition


00:00 11.3 0.2 46 0.0       99.46     LegendNANA
01:00 11.0 1.0 50 0.0       99.48     LegendNANA
02:00 10.3 0.4 50 0.0       99.47     LegendNANA
03:00 9.3 0.6 54 0.0       99.52     LegendNANA
04:00 8.3 1.3 61 0.0       99.57     LegendNANA
05:00 7.5 1.8 67 0.0       99.64     LegendNANA
06:00 7.0 1.7 69 0.0       99.74     LegendNANA
07:00 7.3 1.4 66 0.0       99.86     LegendNANA
08:00 6.8 1.5 69 0.0       99.95     LegendNANA
09:00 6.9 0.3 63 0.0       100.03     LegendNANA
10:00 7.7 0.0 58 0.0       100.11     LegendNANA
11:00 8.4 -0.1 55 0.0       100.18     LegendNANA
12:00 8.8 -1.1 50 0.0       100.21     LegendNANA
13:00 10.0 -1.4 45 0.0       100.24     LegendNANA
14:00 9.9 -1.1 46 0.0       100.26     LegendNANA
15:00 10.5 -2.0 42 0.2       100.20     LegendNANA
16:00 9.9 -5.3 34 0.3       100.22     LegendNANA
17:00 9.0 -9.3 26 0.2       100.23     LegendNANA
18:00 8.1 -11.5 24 0.0       100.33     LegendNANA
19:00 6.9 -12.0 24 0.0       100.38     LegendNANA
20:00 5.9 -8.7 34 0.0       100.43     LegendNANA
21:00 5.6 -7.7 38 0.0       100.47     LegendNANA
22:00 5.3 -8.7 36 0.0       100.47     LegendNANA
23:00 4.5 -8.3 39 0.0       100.50     LegendNANA

Notes on Data Quality.

Legend

  • E = Estimated
  • M = Missing
  • NA = Not Available*
  • [empty] = Indicates an unobserved value
Date modified: